User: anonymous   Login
Location: Brno
(49.2000°N, 16.6330°E)
Time: 10:33:46
(UTC+01:00)
Language:

NOSS 3-4 (A) - Orbit

View from above orbital plane
View from above orbital plane
View from above satellite
View from above satellite

Ground track
Ground track

The orbit data is extracted from the following two-line orbital elements,

1 31701U 07027A   14292.13814769 0.00000000  00000-0  00000-0 0    08
2 31701  63.4030  40.5856 0114000  36.4903 323.5097 13.40657271    04
Epoch (UTC): 19 October 2014 03:18:55
Eccentricity: 0.0114000
inclination: 63.4030°
perigee height: 1021 km
apogee height: 1192 km
right ascension of ascending node: 40.5856°
argument of perigee: 36.4903°
revolutions per day: 13.40657271
mean anomaly at epoch: 323.5097°
orbit number at epoch: 0

The dashed part of the orbit path shows where the satellite is in the earth's shadow,  

DLR